Location: Brno
(49.2000°N, 16.6330°E)
Time: 15:55:02
(UTC+02:00)

ISS - Visible Passes

Search period start: 29 September 2023 00:00
Search period end: 09 October 2023 00:00
Orbit: 413 x 421 km, 51.6° (Epoch: 29 September)

Date Brightness Start Highest point End Pass type
(mag) Time Alt. Az. Time Alt. Az. Time Alt. Az.
29 Sep -3.8 19:17:09 10° WNW 19:20:30 90° NNE 19:23:42 11° ESE visible
29 Sep -1.7 20:54:16 10° W 20:56:37 22° SW 20:56:37 22° SW visible
30 Sep -2.4 20:05:43 10° W 20:08:46 33° SSW 20:10:19 21° SSE visible
01 Oct -3.0 19:17:15 10° WNW 19:20:28 48° SSW 19:23:42 10° SE visible
02 Oct -1.1 20:06:17 10° W 20:08:23 16° SW 20:10:28 10° S visible
03 Oct -1.6 19:17:20 10° W 19:20:05 23° SW 19:22:48 10° SSE visible
05 Oct -0.6 19:18:25 10° WSW 19:19:16 11° SW 19:20:07 10° SSW visible
